This demonstration page uses our WeatherBlox Daily Observations layout. Learn more.

Left ArrowRight Arrow

Hourly Observations for April 21, 2016

Temp ( °F °C ) Dew Point ( °F °C ) Humidity (%) Winds ( mph kmh ) Pressure ( in mb ) Visibility ( mi km ) Precip ( " mm )
12:04 am 00:04 Cloudy with Light Rain 52 11 48 9 88 88 WSW 14 22 29.85 1011 6 10 0.00 0.00
12:44 am 00:44 Cloudy with Light Rain 52 11 50 10 94 94 W 14 22 29.83 1010 4 6 0.00 0.00
12:54 am 00:54 Cloudy with Light Rain 52 11.1 50 10 93 93 W 12 19 29.83 1010 3 5 0.04 1.02
1:34 am 01:34 Cloudy 53 11.7 50 10 89 89 WNW 17 28 29.83 1010 10 16 0.00 0.03
1:54 am 01:54 Cloudy 53 11.7 50 10 89 89 WNW 17 28 29.82 1010 10 16 0.00 0.03
2:54 am 02:54 Cloudy with Light Rain 53 11.7 50 10 89 89 WNW 16 26 29.80 1009 7 11 0.00 0.03
3:18 am 03:18 Cloudy with Light Rain 54 12 50 10 88 88 WNW 17 28 29.80 1009 6 10 0.00 0.00
3:45 am 03:45 Cloudy 53 11.7 50 10 89 89 WNW 18 30 29.80 1009 10 16 0.02 0.51
3:54 am 03:54 Cloudy 54 12.2 50 10 87 87 WNW 15 24 29.80 1009 10 16 0.02 0.51
4:54 am 04:54 Cloudy 54 12.2 50 10 87 87 WNW 16 26 29.82 1010 10 16 0.00 0.00
5:54 am 05:54 Cloudy 54 12.2 51 10.6 90 90 WNW 14 22 29.81 1010 9 14 0.00 0.00
6:54 am 06:54 Cloudy with Light Rain 53 11.7 51 10.6 93 93 WNW 16 26 29.83 1010 4 6 0.00 0.03
7:54 am 07:54 Cloudy with Mist and Fog 54 12 52 11 94 94 NW 16 26 29.85 1011 4 6 0.00 0.00
7:56 am 07:56 Cloudy with Light Rain 54 12.2 51 10.6 90 90 NW 16 26 29.85 1011 5 8 0.00 0.03
8:06 am 08:06 Cloudy with Mist and Fog 54 12 52 11 94 94 NW 18 30 29.85 1011 6 10 0.00 0.00
8:54 am 08:54 Cloudy 55 12.8 51 10.6 87 87 NW 17 28 29.85 1011 7 11 0.00 0.03
9:54 am 09:54 Cloudy 57 13.9 51 10.6 81 81 NW 20 31 29.86 1011 8 13 0.00 0.00
10:43 am 10:43 Cloudy 59 15 52 11 77 77 NNW 23 37 29.88 1012 9 14 0.00 0.00
10:54 am 10:54 Cloudy 59 15 51 10.6 75 75 NNW 24 39 29.88 1012 9 14 0.00 0.00
11:54 am 11:54 Cloudy 60 15.6 51 10.6 72 72 N 21 33 29.91 1013 9 14 0.00 0.00
12:05 pm 12:05 Cloudy 61 16.1 52 11.1 72 72 N 21 33 29.88 1012 10 16 0.00 0.00
12:54 pm 12:54 Cloudy 62 16.7 51 10.6 67 67 N 20 31 29.91 1013 10 16 0.00 0.00
1:54 pm 13:54 Cloudy 67 19.4 50 10 55 55 N 23 37 29.90 1013 10 16 0.00 0.00
2:54 pm 14:54 Partly Cloudy 69 20.6 48 8.9 47 47 N 20 31 29.91 1013 10 16 0.00 0.00
3:54 pm 15:54 Mostly Sunny 71 21.7 48 8.9 44 44 NNW 17 28 29.90 1013 10 16 0.00 0.00
4:54 pm 16:54 Mostly Sunny 72 22.2 47 8.3 41 41 NNW 17 28 29.90 1013 10 16 0.00 0.00
5:54 pm 17:54 Mostly Sunny 71 21.7 46 7.8 41 41 N 17 28 29.91 1013 10 16 0.00 0.00
6:54 pm 18:54 Sunny 69 20.6 48 8.9 47 47 N 13 20 29.91 1013 10 16 0.00 0.00
7:54 pm 19:54 Mostly Cloudy 67 19.4 49 9.4 53 53 NNW 7 11 29.93 1013 10 16 0.00 0.00
8:54 pm 20:54 Cloudy 60 15.6 51 10.6 72 72 NNE 10 17 29.97 1015 10 16 0.00 0.00
9:54 pm 21:54 Mostly Cloudy 59 15 51 10.6 75 75 N 7 11 30.01 1016 10 16 0.00 0.00
10:54 pm 22:54 Clear 58 14.4 49 9.4 72 72 NNW 12 19 30.04 1017 10 16 0.00 0.00
11:54 pm 23:54 Mostly Cloudy 56 13.3 49 9.4 77 77 N 15 24 30.04 1017 10 16 0.00 0.00

Powered by AerisWeather